506  
ASUS44 KEWX 261011  
RWRTX  
SOUTH TEXAS REGIONAL WEATHER ROUNDUP  
NATIONAL WEATHER SERVICE AUSTIN/SAN ANTONIO TX  
500 AM CDT THU MAY 26 2016  
 
NOTE: "FAIR" INDICATED FEW OR NO CLOUDS BELOW 12,000 FEET WITH NO  
SIGNIFICANT WEATHER AND/OR S TO VISIBILITY
.  
 
* - THESE STATIONS ARE NOT NWS OR FAA STATIONS...AND ARE NOT SUBJECT  
TO NWS AND FAA QUALITY CONTROL.
 
 
TXZ171-172-183>190-261100-  
TEXAS HILL COUNTRY AND EDWARDS PLATEAU  
 
CITY SKY/WX TMP DP RH WIND PRES REMARKS
 
JUNCTION CLOUDY 79 72 79 S7 29.92S  
*LLANO CLOUDY 79 75 89 CALM 29.96S  
BURNET LGT RAIN 75 74 96 S8 29.97R FOG  
*HORSESHOE BAY CLOUDY 77 74 91 S6 29.94R  
*KERRVILLE CLOUDY 76 75 96 S9 29.96F FOG  
*FREDERICKSBRG CLOUDY 76 73 91 S9 29.95F  
*ROCKSPRINGS N/A 75 73 94 S13G20 29.96S  
*BOERNE STAGE CLOUDY 73 72 94 S8G17 29.96F  
*CASTROVILLE CLOUDY 78 76 94 S7 29.95S  
HONDO CLOUDY 77 76 96 S13 29.95S  
*UVALDE CLOUDY 76 75 96 SE9 29.92S  
DEL RIO CLOUDY 78 72 81 E12 29.85F  
LAUGHLIN AFB CLOUDY 77 70 78 SE10 29.87S  
CARRIZO SPRGS CLOUDY 77 77 100 S9 29.90S FOG  
*EAGLE PASS MOSUNNY 75 64 69 SE5 29.88R  

 
 
TXZ173-191>194-202-209-217>225-228-261100-  
CENTRAL AND SOUTH CENTRAL TEXAS  
 
CITY SKY/WX TMP DP RH WIND PRES REMARKS
 
GEORGETOWN CLOUDY 79 72 78 S10G17 29.93S  
AUSTIN/BERGSTM CLOUDY 78 75 90 S13 29.93S  
AUSTIN/MABRY CLOUDY 78 75 90 VRB7 29.94S  
*AUSTIN/EXEC CLOUDY 77 75 94 S6 29.94S  
*LAGO VISTA DRIZZLE 76 74 95 S9G17 29.96R  
SAN MARCOS CLOUDY 79 75 89 S10 29.95R  
NEW BRAUNFELS CLOUDY 79 75 87 S8 29.92S  
RANDOLPH AFB CLOUDY 78 78 100 S12 29.94R  
PT SAN ANTONIO CLOUDY 78 75 92 S10 29.92S  
SAN ANTONIO CLOUDY 79 74 84 S13G20 29.94S  
STINSON FIELD CLOUDY 80 75 84 S8 29.91S  
*PLEASANTON CLOUDY 78 75 89 S6 29.93S  
*LA GRANGE N/A 80 77 93 S6 29.93S FOG  
*GIDDINGS CLOUDY 78 74 90 S6 29.99S  
*GONZALES CLOUDY 80 79 98 SE7 29.93F  

 
 
TXZ163>164-176>182-195>201-210>213-226-227-235-261100-  
SOUTHEAST TEXAS  
 
CITY SKY/WX TMP DP RH WIND PRES REMARKS
 
COLLEGE STN CLOUDY 78 75 90 SE10 29.96S  
*BRYAN CLOUDY 77 77 100 SE9 29.97F  
*CALDWELL CLOUDY 77 77 100 SE8 29.98F  
*CROCKETT CLOUDY 75 75 100 SE3 30.01S  
*BRENHAM CLOUDY 79 77 93 SE6 29.97S  
HUNTSVILLE MOCLDY 78 74 87 S6 29.98R  
CONROE CLOUDY 76 74 93 SE5 29.98F  
HOUSTON BUSH CLOUDY 78 75 90 S12 29.97S  
HOUSTON HOBBY CLOUDY 80 76 87 S7 29.97S  
*HOUSTON SW AP CLOUDY 78 76 94 SE5 29.98R  
PEARLAND CLOUDY 81 77 88 S8 29.99S  
HOUSTON HOOKS CLOUDY 80 76 87 S6 29.97S  
ELLINGTON FLD MOCLDY 81 73 78 SE8 29.99S  
SUGAR LAND CLOUDY 78 75 90 S7 29.97R  
*HOUSTON EXEC CLOUDY 79 77 94 S6 29.99R  
*CLEVELAND MUN CLOUDY 77 77 98 CALM 30.00S FOG  
*WHARTON CLOUDY 78 76 93 SE3 29.97S  
*COLUMBUS FAIR 78 77 95 S6 29.95F  
*EAGLE LAKE CLOUDY 79 76 92 S7 29.96F  

 
 
TXZ214>216-236>238-261100-  
THE UPPER TEXAS COAST  
 
CITY SKY/WX TMP DP RH WIND PRES REMARKS
 
*ORANGE CLOUDY 78 74 88 S6 30.02S  
PORT ARTHUR CLOUDY 78 75 90 S9 29.99F  
GALVESTON CLOUDY 80 78 94 S15 29.99S  
ANGLETON CLOUDY 81 77 88 S14 29.97R  
*BAY CITY CLOUDY 80 78 94 S8 29.97R  
PALACIOS CLOUDY 81 77 88 S14 29.95S  

 
 
TXZ229>234-239>247-261100-  
TEXAS COASTAL BEND AND RIO GRANDE PLAINS  
 
CITY SKY/WX TMP DP RH WIND PRES REMARKS
 
VICTORIA CLOUDY 81 77 88 S9 29.95S  
*BEEVILLE CLOUDY 80 80 100 SE3 29.93S  
ROCKPORT CLOUDY 82 77 84 SE16 29.90F HX 90  
*PORT ARANSAS CLOUDY 81 80 99 SE15G21 29.90F HX 91  
*PORT LAVACA CLOUDY 80 78 95 S9 29.94S  
*INGLESIDE CLOUDY 58 55 92 SE13G20 29.90F  
CORPUS CHRISTI CLOUDY 82 79 90 S9 29.90F HX 92  
CORPUS NAS CLOUDY 82 81 96 SE17 29.90S HX 95  
*ROBSTOWN CLOUDY 82 79 92 S5 29.92R HX 92  
ALICE CLOUDY 80 78 94 NW8 29.91S  
KINGSVILLE NAS CLOUDY 80 80 100 S5 29.91R  
COTULLA CLOUDY 80 76 87 VRB6 29.93S  
*FAITH RANCH N/A N/A N/A N/A MISG N/A  
LAREDO CLOUDY 79 76 90 S9 29.93F  

 
 
TXZ248>255-261100-  
DEEP SOUTH TEXAS  
 
CITY SKY/WX TMP DP RH WIND PRES REMARKS
 
BROWNSVILLE CLOUDY 80 79 96 S13 29.90R  
PORT ISABEL CLOUDY 82 79 90 S13G20 29.90R HX 92  
*SOUTH PADRE N/A 81 79 94 S15 29.90R  
HARLINGEN CLOUDY 82 78 88 S8 29.91R HX 91  
*HEBBRONVILLE CLOUDY 75 73 93 CALM 29.94S  
MCALLEN CLOUDY 80 75 84 SE6 29.92R  
*WESLACO CLOUDY 80 77 90 S8 29.91R FOG  
FALFURRIAS CLOUDY 78 74 87 SW5 29.91S  
EDINBURG MOCLDY 78 73 83 CALM 29.93R  
*ZAPATA PTCLDY 76 74 94 S3 29.93S  

 
 
TXZ213>215-236>238-242>244-246-247-251-254-255-261100-  
CMAN STATIONS  
 
STATION/POSITION TIME TEMP WIND PRES WAVE
 
AIR SEA DIR/SP/G HT/PER  
(UTC) (F) (DEG/KT/KT) (MB) (FT/S)  
SABINE PASS 0900 79 81 170/ 10/ 13 1017.4  
SEA RIM ST PARK 1000 79 160/ 10/ 13 1016.3  
NORTH JETTY/GLS 0900 82 81 N/A  
EAGLE POINT 0900 81 76 180/ 13/ 15 1015.3  
MORGANS POINT 0900 81 77 160/ 11/ 14 1015.3  
MISSION/ARANSAS 0900 82 1014.0  
PORT O'CONNOR 0900 160/ 18/ 21 N/A  
PORT ARANSAS 1000 81 83 120/ 17/ 18 1012.9  
MALAQUITE BEACH 0900 82 84 110/ 14/ 19 1012.5  
BAFFIN BAY 0900 82 83 160/ 14/ 18 1012.2  
PORT ISABEL 0900 81 82 160/ 14/ 19 1010.7  

 
 
GMZ080-GMZ150>470-261100-  
OFFSHORE BUOY REPORTS  
 
STATION/POSITION TIME TEMP WIND PRES WAVE
 
AIR SEA DIR/SP/G HT/PER  
(UTC) (F) (DEG/KT/KT) (MB) (FT/S)  
20 E GALVESTON 0950 80 80 160/ 14/ 16 1014.8 4/ 6  
90 E PT ARANSAS 0950 81 81 150/ 17/ 21 1014.0 5/ 7  
35 NE PT MANSFLD 0950 81 81 130/ 17/ 21 1011.5 5/ 6  
200 E PT ISABEL 0950 N/A 4/ 7  

 
 
 
CLICK HERE TO GO TO PREVIOUS BULLETINS.

The Nexlab TX Page Main Text Page